Flag for Germany Weather past 2 weeks in Meppen, Lower Saxony, Germany

Now
55 °F

Cool.


Feels Like: 55 °F
Forecast: 47 / 64 °F
Wind: 1 mph from Southwest

Location: Meppen

Current Time: Sep 2, 2015 at 9:44:51 PM

Latest Report: Sep 2, 2015 at 9:00 PM


Visibility: 6 mi

Pressure: 29.98 "Hg

Humidity: 85%

Dew point: 51 °F

Location of MeppenLocation

Historic Weather in Meppen — Graph

°F

Meppen temperature yesterday

Maximum temperature yesterday: 69 °F (at 1:00 AM)
Minimum temperature yesterday: 56 °F (at 10:00 PM)
Average temperature yesterday: 63 °F

Past Weeks' High & Low Weather Summary

 TemperatureHumidityPressure
High82 °F (Aug 31, 4:00 PM)96% (Aug 20, 9:00 AM)30.26 "Hg (Aug 20, 9:00 AM)
Low46 °F (Aug 29, 7:00 AM)29% (Aug 22, 4:00 PM)29.50 "Hg (Aug 24, 6:00 PM)
Average64 °F74%29.97 "Hg
* Reported Aug 18 7:00 PM — Sep 2 7:00 PM, Meppen, Weather by CustomWeather, © 2015

Note: Actual official high and low records may vary slightly from our data, if they occured in-between our weather recording intervals... More about our weather records

Advertising

Meppen weather history for previous 24 hours

 ConditionsComfort  
Time TempWeatherWind HumidityBarometerVisibility
7:00 PM
Wed, Sep 2
60 °FCool.2 mph68%29.97 "Hg6 mi
6:00 PM59 °FCool.2 mph66%29.97 "Hg6 mi
4:00 PM64 °FScattered clouds.3 mph54%29.97 "Hg28 mi
3:00 PM64 °FScattered clouds.3 mph56%29.98 "Hg28 mi
2:00 PM63 °FScattered clouds.5 mph55%29.98 "Hg28 mi
1:00 PM63 °FScattered clouds.6 mph57%29.98 "Hg28 mi
12:00 PM62 °FScattered clouds.5 mph64%29.99 "Hg28 mi
10:00 AM58 °FPassing clouds.5 mph74%29.99 "Hg28 mi
9:00 AM55 °FPassing clouds.5 mph81%29.99 "Hg25 mi
8:00 AMN/APassing clouds.5 mphN/AN/A14 mi
7:00 AM51 °FPartly sunny.3 mph91%29.98 "Hg22 mi
4:00 AM53 °FCool.2 mph88%30.00 "Hg5 mi
3:00 AM54 °FCool.3 mph86%30.00 "Hg5 mi
2:00 AM55 °FCool.2 mph85%29.99 "Hg5 mi
1:00 AM55 °FCool.3 mph86%30.00 "Hg5 mi
10:00 PM
Tue, Sep 1
56 °FCool.2 mph82%29.98 "Hg6 mi
9:00 PM58 °FCool.2 mph75%29.97 "Hg6 mi
Weather by CustomWeather, © 2015

See weather overviewHow to use our weather pages